Home   Weather   Wolfsburg   Past weeks

Flag for Germany Past Weather in Wolfsburg, Lower Saxony, Germany — Yesterday and Last 2 Weeks

Now
50 °F

Sunny.


Feels Like: 47 °F
Forecast: 34 / 47 °F
Wind: 7 mph from West

Location: Braunschweig Wolfsburg

Current Time: Apr 24, 2017 at 9:07:43 pm

Latest Report: Apr 24, 2017 at 8:20 pm


Visibility: 10 mi

Pressure: 29.77 "Hg

Humidity: 71%

Dew Point: 41 °F

Location of WolfsburgLocation

Past Weather in Wolfsburg — Graph

°F

Wolfsburg Temperature Yesterday

Maximum temperature yesterday: 46 °F (at 12:20 pm)
Minimum temperature yesterday: 39 °F (at 7:20 am)
Average temperature yesterday: 43 °F

High & Low Weather Summary for the Past Weeks

 TemperatureHumidityPressure
High59 °F (Apr 10, 8:50 am)100% (Apr 11, 7:20 am)30.60 "Hg (Apr 11, 7:20 am)
Low25 °F (Apr 20, 6:50 am)34% (Apr 20, 3:20 pm)29.80 "Hg (Apr 12, 6:50 pm)
Average47 °F69%30.15 "Hg
* Reported Apr 10 7:20 am — Apr 24 7:50 pm, Wolfsburg, Weather by CustomWeather, © 2017

Note: Actual official high and low records may vary slightly from our data, if they occured in-between our weather recording intervals... More about our weather records

Advertising

Wolfsburg Weather History for the Previous 24 Hours

Scroll right to see more
 ConditionsComfort  
Time TempWeatherWind HumidityBarometerVisibility
7:50 pm
Mon, Apr 24
50 °FSunny.9 mph71%29.80 "Hg10 mi
7:20 pm52 °FSunny.9 mph62%29.80 "Hg10 mi
6:50 pm54 °FPassing clouds.9 mph54%29.80 "HgN/A
6:20 pm54 °FSunny.9 mph54%29.80 "Hg10 mi
5:50 pm55 °FSunny.12 mph51%29.80 "Hg10 mi
5:20 pm55 °FSunny.12 mph51%29.80 "Hg10 mi
4:20 pm55 °FSunny.16 mph47%29.83 "Hg10 mi
3:50 pm57 °FSunny.20 mph44%29.86 "Hg10 mi
3:20 pm57 °FPassing clouds.18 mph44%29.86 "HgN/A
2:50 pm57 °FSunny.17 mph44%29.86 "Hg10 mi
2:20 pm55 °FSunny.17 mph44%29.89 "Hg10 mi
1:50 pm55 °FPartly sunny.17 mph44%29.89 "HgN/A
1:20 pm55 °FPartly sunny.16 mph44%29.92 "HgN/A
12:50 pm55 °FBroken clouds.21 mph44%29.92 "HgN/A
12:20 pm54 °FPassing clouds.20 mph44%29.95 "HgN/A
11:50 am54 °FSunny.20 mph44%29.95 "Hg10 mi
11:20 am52 °FPassing clouds.15 mph54%29.98 "HgN/A
10:50 am50 °FSunny.16 mph54%29.98 "Hg10 mi
10:20 am46 °FPassing clouds.15 mph62%29.98 "HgN/A
9:50 am45 °FSunny.14 mph71%30.01 "Hg10 mi
9:20 am45 °FSunny.14 mph71%30.01 "Hg10 mi
8:50 am43 °FPassing clouds.13 mph81%30.04 "HgN/A
8:20 am41 °FPassing clouds.12 mph81%30.04 "HgN/A
7:50 am41 °FPassing clouds.8 mph81%30.04 "HgN/A
7:20 am37 °FSunny.6 mph93%30.04 "Hg10 mi
6:50 am36 °FSunny.3 mph93%30.07 "Hg10 mi
Weather by CustomWeather, © 2017

See weather overviewHow to use our weather pages